Time,TemperatureF,DewpointF,PressureIn,WindDirection,WindDirectionDegrees,WindSpeedMPH,WindSpeedGustMPH,Humidity,HourlyPrecipIn,Conditions,Clouds,dailyrainin,SolarRadiationWatts/m^2,SoftwareType,DateUTC
2013-08-18 00:01:00,60.4,56.6,30.24,East,90,0.0,0.0,87,0.00,CLR,,0.00,0.0,WeatherDisplay:10.37,2013-08-18 04:01:00,
2013-08-18 00:02:00,60.4,56.6,30.24,East,90,0.0,0.0,87,0.00,CLR,,0.00,0.0,WeatherDisplay:10.37,2013-08-18 04:02:00,
2013-08-18 00:07:00,60.1,57.1,30.24,ENE,68,1.4,1.4,90,0.00,CLR,,0.00,0.0,WeatherDisplay:10.37,2013-08-18 04:07:00,
2013-08-18 00:12:00,59.9,56.0,30.24,ENE,68,0.0,0.0,87,0.00,CLR,,0.00,0.0,WeatherDisplay:10.37,2013-08-18 04:12:00,
2013-08-18 00:17:00,59.7,56.2,30.21,East,90,0.0,0.0,88,0.00,CLR,,0.00,0.0,WeatherDisplay:10.37,2013-08-18 04:17:00,
2013-08-18 00:22:00,59.5,56.0,30.21,ESE,112,0.0,0.0,88,0.00,CLR,,0.00,0.0,WeatherDisplay:10.37,2013-08-18 04:22:00,
2013-08-18 00:27:00,59.5,56.0,30.21,East,90,0.0,0.0,88,0.00,CLR,,0.00,0.0,WeatherDisplay:10.37,2013-08-18 04:27:00,
2013-08-18 00:32:00,59.5,56.0,30.21,ENE,68,0.0,0.0,88,0.00,CLR,,0.00,0.0,WeatherDisplay:10.37,2013-08-18 04:32:00,
2013-08-18 00:37:00,59.7,56.8,30.21,ENE,68,0.9,0.0,90,0.00,CLR,,0.00,0.0,WeatherDisplay:10.37,2013-08-18 04:37:00,
2013-08-18 00:42:00,59.7,56.8,30.21,ENE,68,1.2,1.2,90,0.00,CLR,,0.00,0.0,WeatherDisplay:10.37,2013-08-18 04:42:00,
2013-08-18 00:47:00,59.5,56.3,30.21,ENE,68,0.0,0.0,89,0.00,CLR,,0.00,0.0,WeatherDisplay:10.37,2013-08-18 04:47:00,
2013-08-18 00:52:00,59.7,56.5,30.21,ENE,68,0.0,0.0,89,0.00,CLR,,0.00,0.0,WeatherDisplay:10.37,2013-08-18 04:52:00,
2013-08-18 00:57:00,59.7,56.5,30.21,ENE,68,0.0,0.0,89,0.00,CLR,,0.00,0.0,WeatherDisplay:10.37,2013-08-18 04:57:00,
2013-08-18 01:02:00,59.5,56.3,30.21,ENE,68,0.0,0.0,89,0.00,CLR,,0.00,0.0,WeatherDisplay:10.37,2013-08-18 05:02:00,
2013-08-18 01:07:00,59.2,56.2,30.21,ENE,68,0.0,0.0,90,0.00,CLR,,0.00,0.0,WeatherDisplay:10.37,2013-08-18 05:07:00,
2013-08-18 01:12:00,58.8,55.9,30.21,ENE,68,0.0,0.0,90,0.00,CLR,,0.00,0.0,WeatherDisplay:10.37,2013-08-18 05:12:00,
2013-08-18 01:17:00,58.6,55.4,30.21,ENE,68,0.0,0.0,89,0.00,CLR,,0.00,0.0,WeatherDisplay:10.37,2013-08-18 05:17:00,
2013-08-18 01:22:00,58.5,55.2,30.21,ENE,68,0.0,0.0,89,0.00,CLR,,0.00,0.0,WeatherDisplay:10.37,2013-08-18 05:22:00,
2013-08-18 01:27:00,58.1,55.2,30.21,ENE,68,0.0,0.0,90,0.00,CLR,,0.00,0.0,WeatherDisplay:10.37,2013-08-18 05:27:00,
2013-08-18 01:32:00,57.9,55.0,30.21,ENE,68,0.0,0.0,90,0.00,CLR,,0.00,0.0,WeatherDisplay:10.37,2013-08-18 05:32:00,
2013-08-18 01:37:00,57.7,54.8,30.21,ENE,68,0.0,0.0,90,0.00,CLR,,0.00,0.0,WeatherDisplay:10.37,2013-08-18 05:37:00,
2013-08-18 01:42:00,57.4,54.8,30.21,East,90,0.0,0.0,91,0.00,CLR,,0.00,0.0,WeatherDisplay:10.37,2013-08-18 05:42:00,
2013-08-18 01:47:00,57.4,55.4,30.21,East,90,0.0,0.0,93,0.00,CLR,,0.00,0.0,WeatherDisplay:10.37,2013-08-18 05:47:00,
2013-08-18 01:52:00,57.4,54.8,30.21,ENE,68,0.0,0.0,91,0.00,CLR,,0.00,0.0,WeatherDisplay:10.37,2013-08-18 05:52:00,
2013-08-18 01:57:00,57.2,54.6,30.21,ENE,68,0.0,0.0,91,0.00,CLR,,0.00,0.0,WeatherDisplay:10.37,2013-08-18 05:57:00,
2013-08-18 02:02:00,57.2,54.6,30.21,ENE,68,0.0,0.0,91,0.00,CLR,,0.00,0.0,WeatherDisplay:10.37,2013-08-18 06:02:00,
2013-08-18 02:07:00,57.2,54.6,30.21,ENE,68,0.0,0.0,91,0.00,CLR,,0.00,0.0,WeatherDisplay:10.37,2013-08-18 06:07:00,
2013-08-18 02:12:00,57.2,54.9,30.21,East,90,0.0,0.0,92,0.00,CLR,,0.00,0.0,WeatherDisplay:10.37,2013-08-18 06:12:00,
2013-08-18 02:17:00,57.0,54.7,30.21,East,90,0.0,0.0,92,0.00,CLR,,0.00,0.0,WeatherDisplay:10.37,2013-08-18 06:17:00,
2013-08-18 02:22:00,57.0,54.7,30.21,ENE,68,0.0,0.0,92,0.00,CLR,,0.00,0.0,WeatherDisplay:10.37,2013-08-18 06:22:00,
2013-08-18 02:27:00,57.0,54.7,30.21,ENE,68,0.0,0.0,92,0.00,CLR,,0.00,0.0,WeatherDisplay:10.37,2013-08-18 06:27:00,
2013-08-18 02:32:00,57.2,54.9,30.21,ENE,68,0.0,0.0,92,0.00,CLR,,0.00,0.0,WeatherDisplay:10.37,2013-08-18 06:32:00,
2013-08-18 02:37:00,57.2,54.9,30.21,ENE,68,0.0,0.0,92,0.00,CLR,,0.00,0.0,WeatherDisplay:10.37,2013-08-18 06:37:00,
2013-08-18 02:42:00,57.4,55.4,30.21,ENE,68,0.0,0.0,93,0.00,CLR,,0.00,0.0,WeatherDisplay:10.37,2013-08-18 06:42:00,
2013-08-18 02:47:00,57.7,55.7,30.21,ESE,112,0.0,0.0,93,0.00,CLR,,0.00,0.0,WeatherDisplay:10.37,2013-08-18 06:47:00,
2013-08-18 02:52:00,57.9,55.9,30.21,ENE,68,1.2,0.0,93,0.00,CLR,,0.00,0.0,WeatherDisplay:10.37,2013-08-18 06:52:00,
2013-08-18 02:57:00,58.1,56.1,30.21,ENE,68,1.2,0.0,93,0.00,CLR,,0.00,0.0,WeatherDisplay:10.37,2013-08-18 06:57:00,
2013-08-18 03:02:00,58.1,56.1,30.21,ENE,68,0.0,0.0,93,0.00,CLR,,0.00,0.0,WeatherDisplay:10.37,2013-08-18 07:02:00,
2013-08-18 03:07:00,58.1,55.8,30.21,ENE,68,0.0,0.0,92,0.00,CLR,,0.00,0.0,WeatherDisplay:10.37,2013-08-18 07:07:00,
2013-08-18 03:12:00,58.1,55.8,30.21,ESE,112,2.3,2.3,92,0.00,CLR,,0.00,0.0,WeatherDisplay:10.37,2013-08-18 07:12:00,
2013-08-18 03:17:00,58.3,56.0,30.21,ENE,68,1.2,0.0,92,0.00,CLR,,0.00,0.0,WeatherDisplay:10.37,2013-08-18 07:17:00,
2013-08-18 03:22:00,58.5,56.1,30.21,ENE,68,2.4,0.0,92,0.00,CLR,,0.00,0.0,WeatherDisplay:10.37,2013-08-18 07:22:00,
2013-08-18 03:27:00,58.5,56.1,30.21,NNE,22,0.0,0.0,92,0.00,CLR,,0.00,0.0,WeatherDisplay:10.37,2013-08-18 07:27:00,
2013-08-18 03:32:00,58.5,56.1,30.21,NNE,22,0.0,0.0,92,0.00,CLR,,0.00,0.0,WeatherDisplay:10.37,2013-08-18 07:32:00,
2013-08-18 03:37:00,58.6,56.6,30.21,ESE,112,0.0,0.0,93,0.00,CLR,,0.00,0.0,WeatherDisplay:10.37,2013-08-18 07:37:00,
2013-08-18 03:42:00,58.5,56.1,30.18,ENE,68,0.0,0.0,92,0.00,CLR,,0.00,0.0,WeatherDisplay:10.37,2013-08-18 07:42:00,
2013-08-18 03:47:00,58.8,56.5,30.18,ESE,112,1.2,1.2,92,0.00,CLR,,0.00,0.0,WeatherDisplay:10.37,2013-08-18 07:47:00,
2013-08-18 03:52:00,59.0,56.7,30.18,ENE,68,1.4,0.0,92,0.00,CLR,,0.00,0.0,WeatherDisplay:10.37,2013-08-18 07:52:00,
2013-08-18 03:57:00,59.2,56.9,30.18,ENE,68,2.4,0.0,92,0.00,CLR,,0.00,0.0,WeatherDisplay:10.37,2013-08-18 07:57:00,
2013-08-18 04:02:00,59.4,57.0,30.18,ENE,68,0.0,0.0,92,0.00,CLR,,0.00,0.0,WeatherDisplay:10.37,2013-08-18 08:02:00,
2013-08-18 04:08:00,59.4,57.0,30.18,NE,45,0.0,0.0,92,0.00,CLR,,0.00,0.0,WeatherDisplay:10.37,2013-08-18 08:08:00,
2013-08-18 04:13:00,59.4,56.7,30.21,ENE,68,0.0,0.0,91,0.00,CLR,,0.00,0.0,WeatherDisplay:10.37,2013-08-18 08:13:00,
2013-08-18 04:18:00,59.5,56.9,30.21,ENE,68,0.0,0.0,91,0.00,CLR,,0.00,0.0,WeatherDisplay:10.37,2013-08-18 08:18:00,
2013-08-18 04:23:00,59.5,56.9,30.21,ENE,68,0.0,0.0,91,0.00,CLR,,0.00,0.0,WeatherDisplay:10.37,2013-08-18 08:23:00,
2013-08-18 04:28:00,59.5,56.9,30.21,ENE,68,1.4,0.0,91,0.00,CLR,,0.00,0.0,WeatherDisplay:10.37,2013-08-18 08:28:00,
2013-08-18 04:33:00,59.4,57.0,30.21,ESE,112,2.3,2.3,92,0.00,CLR,,0.00,0.0,WeatherDisplay:10.37,2013-08-18 08:33:00,
2013-08-18 04:38:00,59.5,57.2,30.21,ENE,68,2.4,2.4,92,0.00,CLR,,0.00,0.0,WeatherDisplay:10.37,2013-08-18 08:38:00,
2013-08-18 04:43:00,59.7,57.4,30.21,ESE,112,2.3,2.3,92,0.00,CLR,,0.00,0.0,WeatherDisplay:10.37,2013-08-18 08:43:00,
2013-08-18 04:48:00,60.1,57.7,30.21,ESE,112,2.3,2.3,92,0.00,CLR,,0.00,0.0,WeatherDisplay:10.37,2013-08-18 08:48:00,
2013-08-18 04:53:00,60.1,57.7,30.21,ENE,68,2.3,2.3,92,0.00,CLR,,0.00,0.0,WeatherDisplay:10.37,2013-08-18 08:53:00,
2013-08-18 04:58:00,60.1,57.7,30.21,ENE,68,2.3,2.3,92,0.00,CLR,,0.00,0.0,WeatherDisplay:10.37,2013-08-18 08:58:00,
2013-08-18 05:03:00,60.1,57.4,30.21,NE,45,3.5,3.5,91,0.00,CLR,,0.00,0.0,WeatherDisplay:10.37,2013-08-18 09:03:00,
2013-08-18 05:08:00,60.1,57.4,30.21,ENE,68,1.2,0.0,91,0.00,CLR,,0.00,0.0,WeatherDisplay:10.37,2013-08-18 09:08:00,
2013-08-18 05:13:00,60.1,57.4,30.21,East,90,0.0,0.0,91,0.00,CLR,,0.00,0.0,WeatherDisplay:10.37,2013-08-18 09:13:00,
2013-08-18 05:18:00,60.1,57.4,30.21,ENE,68,2.4,2.4,91,0.00,CLR,,0.00,0.0,WeatherDisplay:10.37,2013-08-18 09:18:00,
2013-08-18 05:23:00,60.3,57.6,30.21,ENE,68,2.3,2.3,91,0.00,CLR,,0.00,0.0,WeatherDisplay:10.37,2013-08-18 09:23:00,
2013-08-18 05:28:00,60.3,57.6,30.21,ENE,68,1.2,0.0,91,0.00,CLR,,0.00,0.0,WeatherDisplay:10.37,2013-08-18 09:28:00,
2013-08-18 05:33:00,60.3,57.6,30.21,ENE,68,2.3,0.0,91,0.00,CLR,,0.00,0.0,WeatherDisplay:10.37,2013-08-18 09:33:00,
2013-08-18 05:38:00,60.4,57.8,30.21,ENE,68,0.0,0.0,91,0.00,CLR,,0.00,0.0,WeatherDisplay:10.37,2013-08-18 09:38:00,
2013-08-18 05:43:00,60.6,58.0,30.21,ESE,112,2.4,2.4,91,0.00,CLR,,0.00,0.0,WeatherDisplay:10.37,2013-08-18 09:43:00,
2013-08-18 05:48:00,60.8,57.8,30.21,East,90,1.2,1.2,90,0.00,CLR,,0.00,0.0,WeatherDisplay:10.37,2013-08-18 09:48:00,
2013-08-18 05:53:00,61.0,58.0,30.21,ESE,112,2.4,2.4,90,0.00,CLR,,0.00,0.0,WeatherDisplay:10.37,2013-08-18 09:53:00,
2013-08-18 05:58:00,61.0,58.3,30.21,ESE,112,2.6,2.9,91,0.00,CLR,,0.00,0.0,WeatherDisplay:10.37,2013-08-18 09:58:00,
2013-08-18 06:03:00,61.0,58.3,30.21,East,90,3.5,3.5,91,0.00,CLR,,0.00,0.0,WeatherDisplay:10.37,2013-08-18 10:03:00,
2013-08-18 06:08:00,61.0,58.3,30.21,ENE,68,2.3,2.3,91,0.00,CLR,,0.00,0.0,WeatherDisplay:10.37,2013-08-18 10:08:00,
2013-08-18 06:13:00,61.0,58.0,30.21,ENE,68,3.5,3.5,90,0.00,CLR,,0.00,0.0,WeatherDisplay:10.37,2013-08-18 10:13:00,
2013-08-18 06:18:00,61.0,58.0,30.21,ENE,68,4.6,4.6,90,0.00,CLR,,0.00,0.0,WeatherDisplay:10.37,2013-08-18 10:18:00,
2013-08-18 06:23:00,61.0,58.0,30.21,ENE,68,3.5,3.5,90,0.00,CLR,,0.00,0.0,WeatherDisplay:10.37,2013-08-18 10:23:00,
2013-08-18 06:28:00,61.0,58.0,30.21,ESE,112,3.5,3.5,90,0.00,CLR,,0.00,0.0,WeatherDisplay:10.37,2013-08-18 10:28:00,
2013-08-18 06:33:00,61.0,58.0,30.21,ESE,112,2.3,2.3,90,0.00,CLR,,0.00,0.0,WeatherDisplay:10.37,2013-08-18 10:33:00,
2013-08-18 06:38:00,61.0,58.0,30.21,ENE,68,2.3,2.3,90,0.00,CLR,,0.00,0.0,WeatherDisplay:10.37,2013-08-18 10:38:00,
2013-08-18 06:43:00,61.0,58.0,30.21,SSE,158,3.5,3.5,90,0.00,CLR,,0.00,0.0,WeatherDisplay:10.37,2013-08-18 10:43:00,
2013-08-18 06:48:00,61.0,58.3,30.21,ESE,112,3.6,3.6,91,0.00,CLR,,0.00,0.0,WeatherDisplay:10.37,2013-08-18 10:48:00,
2013-08-18 06:53:00,61.0,58.3,30.21,ESE,112,2.3,2.3,91,0.00,CLR,,0.00,0.0,WeatherDisplay:10.37,2013-08-18 10:53:00,
2013-08-18 06:58:00,61.0,58.3,30.21,ENE,68,3.5,3.5,91,0.00,CLR,,0.00,0.0,WeatherDisplay:10.37,2013-08-18 10:58:00,
2013-08-18 07:03:00,60.8,58.2,30.21,ESE,112,3.6,3.6,91,0.00,CLR,,0.00,0.0,WeatherDisplay:10.37,2013-08-18 11:03:00,
2013-08-18 07:08:00,60.8,58.2,30.21,ENE,68,2.4,2.4,91,0.00,CLR,,0.00,0.0,WeatherDisplay:10.37,2013-08-18 11:08:00,
2013-08-18 07:13:00,60.8,58.2,30.21,ENE,68,2.3,2.3,91,0.00,CLR,,0.00,0.0,WeatherDisplay:10.37,2013-08-18 11:13:00,
2013-08-18 07:18:00,60.8,58.2,30.21,ENE,68,2.3,2.3,91,0.00,CLR,,0.00,0.0,WeatherDisplay:10.37,2013-08-18 11:18:00,
2013-08-18 07:23:00,60.8,58.2,30.21,ENE,68,0.0,0.0,91,0.00,CLR,,0.00,0.0,WeatherDisplay:10.37,2013-08-18 11:23:00,
2013-08-18 07:28:00,60.8,58.2,30.21,ESE,112,0.0,0.0,91,0.00,CLR,,0.00,0.0,WeatherDisplay:10.37,2013-08-18 11:28:00,
2013-08-18 07:33:00,61.0,58.3,30.21,ESE,112,1.2,1.2,91,0.00,CLR,,0.00,0.0,WeatherDisplay:10.37,2013-08-18 11:33:00,
2013-08-18 07:38:00,61.0,58.3,30.21,East,90,0.0,0.0,91,0.00,CLR,,0.00,0.0,WeatherDisplay:10.37,2013-08-18 11:38:00,
2013-08-18 07:43:00,61.0,58.3,30.21,ESE,112,2.3,2.3,91,0.00,CLR,,0.00,0.0,WeatherDisplay:10.37,2013-08-18 11:43:00,
2013-08-18 07:48:00,61.2,58.5,30.21,ENE,68,2.3,2.3,91,0.00,CLR,,0.00,0.0,WeatherDisplay:10.37,2013-08-18 11:48:00,
2013-08-18 07:53:00,61.2,58.5,30.21,East,90,2.3,2.3,91,0.00,CLR,,0.00,0.0,WeatherDisplay:10.37,2013-08-18 11:53:00,
2013-08-18 07:58:00,61.3,58.7,30.21,ENE,68,2.3,2.3,91,0.00,CLR,,0.00,0.0,WeatherDisplay:10.37,2013-08-18 11:58:00,
2013-08-18 08:03:00,61.5,59.2,30.21,ENE,68,3.5,3.5,92,0.00,CLR,,0.00,0.0,WeatherDisplay:10.37,2013-08-18 12:03:00,
2013-08-18 08:08:00,61.7,59.4,30.21,ENE,68,3.5,3.5,92,0.00,CLR,,0.00,0.0,WeatherDisplay:10.37,2013-08-18 12:08:00,
2013-08-18 08:13:00,62.1,59.7,30.21,ESE,112,4.6,4.6,92,0.00,CLR,,0.00,0.0,WeatherDisplay:10.37,2013-08-18 12:13:00,
2013-08-18 08:18:00,62.4,60.1,30.21,ENE,68,1.2,0.0,92,0.00,CLR,,0.00,0.0,WeatherDisplay:10.37,2013-08-18 12:18:00,
2013-08-18 08:23:00,62.8,60.1,30.21,ENE,68,2.3,2.3,91,0.00,CLR,,0.00,0.0,WeatherDisplay:10.37,2013-08-18 12:23:00,
2013-08-18 08:28:00,63.1,60.2,30.24,ESE,112,1.2,0.0,90,0.00,CLR,,0.00,0.0,WeatherDisplay:10.37,2013-08-18 12:28:00,
2013-08-18 08:33:00,63.3,60.3,30.24,SE,135,2.3,2.3,90,0.00,CLR,,0.00,0.0,WeatherDisplay:10.37,2013-08-18 12:33:00,
2013-08-18 08:38:00,63.5,60.2,30.24,East,90,2.3,2.3,89,0.00,CLR,,0.00,0.0,WeatherDisplay:10.37,2013-08-18 12:38:00,
2013-08-18 08:43:00,63.5,60.2,30.24,ESE,112,2.3,2.3,89,0.00,CLR,,0.00,0.0,WeatherDisplay:10.37,2013-08-18 12:43:00,
2013-08-18 08:48:00,63.7,60.4,30.24,ENE,68,2.6,2.6,89,0.00,CLR,,0.00,0.0,WeatherDisplay:10.37,2013-08-18 12:48:00,
2013-08-18 08:53:00,63.9,60.6,30.24,ESE,112,1.2,1.2,89,0.00,CLR,,0.00,0.0,WeatherDisplay:10.37,2013-08-18 12:53:00,
2013-08-18 08:58:00,64.2,60.9,30.24,ESE,112,0.0,0.0,89,0.00,CLR,,0.00,0.0,WeatherDisplay:10.37,2013-08-18 12:58:00,
2013-08-18 09:03:00,64.6,60.9,30.24,East,90,2.6,2.6,88,0.00,CLR,,0.00,0.0,WeatherDisplay:10.37,2013-08-18 13:03:00,
2013-08-18 09:08:00,64.8,61.4,30.24,ENE,68,4.6,4.6,89,0.00,CLR,,0.00,100.0,WeatherDisplay:10.37,2013-08-18 13:08:00,
2013-08-18 09:13:00,64.8,61.4,30.21,East,90,4.6,4.6,89,0.00,CLR,,0.00,200.0,WeatherDisplay:10.37,2013-08-18 13:13:00,
2013-08-18 09:18:00,65.1,61.5,30.21,ENE,68,4.6,4.6,88,0.00,CLR,,0.00,200.0,WeatherDisplay:10.37,2013-08-18 13:18:00,
2013-08-18 09:23:00,65.3,61.7,30.21,ENE,68,3.5,3.5,88,0.00,CLR,,0.00,300.0,WeatherDisplay:10.37,2013-08-18 13:23:00,
2013-08-18 09:28:00,66.0,62.4,30.21,ENE,68,2.3,0.0,88,0.00,CLR,,0.00,400.0,WeatherDisplay:10.37,2013-08-18 13:28:00,
2013-08-18 09:33:00,66.4,62.4,30.21,ENE,68,4.6,4.6,87,0.00,CLR,,0.00,500.0,WeatherDisplay:10.37,2013-08-18 13:33:00,
2013-08-18 09:38:00,66.9,62.6,30.21,ENE,68,2.3,2.3,86,0.00,CLR,,0.00,600.0,WeatherDisplay:10.37,2013-08-18 13:38:00,
2013-08-18 09:43:00,67.3,62.6,30.24,ESE,112,1.2,0.0,85,0.00,CLR,,0.00,500.0,WeatherDisplay:10.37,2013-08-18 13:43:00,
2013-08-18 09:48:00,67.1,62.4,30.24,ENE,68,4.6,4.6,85,0.00,CLR,,0.00,500.0,WeatherDisplay:10.37,2013-08-18 13:48:00,
2013-08-18 09:53:00,67.8,63.1,30.24,ESE,112,3.5,3.5,85,0.00,CLR,,0.00,800.0,WeatherDisplay:10.37,2013-08-18 13:53:00,
2013-08-18 09:58:00,67.6,63.0,30.21,ESE,112,4.6,4.6,85,0.00,CLR,,0.00,700.0,WeatherDisplay:10.37,2013-08-18 13:58:00,
2013-08-18 10:03:00,67.6,62.6,30.21,SSE,158,3.5,3.5,84,0.00,CLR,,0.00,800.0,WeatherDisplay:10.37,2013-08-18 14:03:00,
2013-08-18 10:08:00,68.0,63.0,30.21,ESE,112,3.5,3.5,84,0.00,CLR,,0.00,900.0,WeatherDisplay:10.37,2013-08-18 14:08:00,
2013-08-18 10:13:00,68.0,62.6,30.24,ENE,68,3.5,3.5,83,0.00,CLR,,0.00,900.0,WeatherDisplay:10.37,2013-08-18 14:13:00,
2013-08-18 10:18:00,68.2,62.8,30.24,ESE,112,4.6,4.6,83,0.00,CLR,,0.00,1000.0,WeatherDisplay:10.37,2013-08-18 14:18:00,
2013-08-18 10:23:00,68.2,63.2,30.24,NNE,22,3.5,3.5,84,0.00,CLR,,0.00,900.0,WeatherDisplay:10.37,2013-08-18 14:23:00,
2013-08-18 10:28:00,68.5,63.2,30.24,East,90,3.1,3.1,83,0.00,CLR,,0.00,900.0,WeatherDisplay:10.37,2013-08-18 14:28:00,
2013-08-18 10:33:00,68.4,63.0,30.24,NE,45,3.5,3.5,83,0.00,CLR,,0.00,1000.0,WeatherDisplay:10.37,2013-08-18 14:33:00,
2013-08-18 10:38:00,68.5,62.8,30.24,ESE,112,4.6,4.6,82,0.00,CLR,,0.00,1200.0,WeatherDisplay:10.37,2013-08-18 14:38:00,
2013-08-18 10:43:00,68.7,63.3,30.21,NE,45,4.6,4.6,83,0.00,CLR,,0.00,1300.0,WeatherDisplay:10.37,2013-08-18 14:43:00,
2013-08-18 10:48:00,69.1,63.4,30.21,ENE,68,3.5,3.5,82,0.00,CLR,,0.00,1300.0,WeatherDisplay:10.37,2013-08-18 14:48:00,
2013-08-18 10:53:00,69.3,63.5,30.21,ESE,112,4.0,4.0,82,0.00,CLR,,0.00,1000.0,WeatherDisplay:10.37,2013-08-18 14:53:00,
2013-08-18 10:58:00,69.1,63.4,30.24,ESE,112,2.6,2.6,82,0.00,CLR,,0.00,800.0,WeatherDisplay:10.37,2013-08-18 14:58:00,
2013-08-18 11:03:00,69.3,63.5,30.24,East,90,4.6,4.6,82,0.00,CLR,,0.00,700.0,WeatherDisplay:10.37,2013-08-18 15:03:00,
2013-08-18 11:08:00,69.6,63.5,30.24,ESE,112,1.2,0.0,81,0.00,CLR,,0.00,800.0,WeatherDisplay:10.37,2013-08-18 15:08:00,
2013-08-18 11:13:00,70.3,63.9,30.24,ESE,112,2.3,2.3,80,0.00,CLR,,0.00,1500.0,WeatherDisplay:10.37,2013-08-18 15:13:00,
2013-08-18 11:18:00,70.7,64.2,30.24,ENE,68,2.6,2.6,80,0.00,CLR,,0.00,1100.0,WeatherDisplay:10.37,2013-08-18 15:18:00,
2013-08-18 11:23:00,71.1,64.2,30.24,SE,135,2.3,2.4,79,0.00,CLR,,0.00,1100.0,WeatherDisplay:10.37,2013-08-18 15:23:00,
2013-08-18 11:28:00,70.5,63.7,30.24,ESE,112,4.6,4.6,79,0.00,CLR,,0.00,800.0,WeatherDisplay:10.37,2013-08-18 15:28:00,
2013-08-18 11:33:00,70.2,63.7,30.24,ESE,112,3.1,3.1,80,0.00,CLR,,0.00,800.0,WeatherDisplay:10.37,2013-08-18 15:33:00,
2013-08-18 11:38:00,69.8,63.3,30.24,East,90,5.8,5.8,80,0.00,CLR,,0.00,800.0,WeatherDisplay:10.37,2013-08-18 15:38:00,
2013-08-18 11:43:00,70.0,63.5,30.24,ENE,68,3.5,3.5,80,0.00,CLR,,0.00,1100.0,WeatherDisplay:10.37,2013-08-18 15:43:00,
2013-08-18 11:48:00,70.7,63.9,30.24,ENE,68,4.6,4.6,79,0.00,CLR,,0.00,1400.0,WeatherDisplay:10.37,2013-08-18 15:48:00,
2013-08-18 11:53:00,71.4,64.6,30.24,ESE,112,3.5,3.5,79,0.00,CLR,,0.00,1300.0,WeatherDisplay:10.37,2013-08-18 15:53:00,
2013-08-18 11:58:00,71.8,64.5,30.24,WSW,248,3.5,3.5,78,0.00,CLR,,0.00,1300.0,WeatherDisplay:10.37,2013-08-18 15:58:00,
2013-08-18 12:03:00,74.3,65.9,30.24,SSE,158,3.5,3.5,75,0.00,CLR,,0.00,1300.0,WeatherDisplay:10.37,2013-08-18 16:03:00,
2013-08-18 12:08:00,74.8,64.4,30.24,ESE,112,4.6,4.6,70,0.00,CLR,,0.00,1300.0,WeatherDisplay:10.37,2013-08-18 16:08:00,
2013-08-18 12:13:00,75.9,65.8,30.24,ENE,68,2.6,0.0,71,0.00,CLR,,0.00,1400.0,WeatherDisplay:10.37,2013-08-18 16:13:00,
2013-08-18 12:18:00,76.6,65.7,30.24,SE,135,3.5,3.5,69,0.00,CLR,,0.00,1300.0,WeatherDisplay:10.37,2013-08-18 16:18:00,
2013-08-18 12:23:00,77.0,65.2,30.24,SSE,158,3.5,3.5,67,0.00,CLR,,0.00,1600.0,WeatherDisplay:10.37,2013-08-18 16:23:00,
2013-08-18 12:28:00,79.2,66.4,30.24,NNE,22,1.2,0.0,65,0.00,CLR,,0.00,1500.0,WeatherDisplay:10.37,2013-08-18 16:28:00,
2013-08-18 12:33:00,79.7,66.0,30.24,NNE,22,2.3,0.0,63,0.00,CLR,,0.00,1300.0,WeatherDisplay:10.37,2013-08-18 16:33:00,
2013-08-18 12:38:00,78.6,65.0,30.24,SSE,158,2.3,2.3,63,0.00,CLR,,0.00,1000.0,WeatherDisplay:10.37,2013-08-18 16:38:00,
2013-08-18 12:43:00,79.7,65.5,30.21,SSW,202,1.2,0.0,62,0.00,CLR,,0.00,1000.0,WeatherDisplay:10.37,2013-08-18 16:43:00,
2013-08-18 12:48:00,79.2,64.6,30.21,ESE,112,3.5,3.5,61,0.00,CLR,,0.00,1300.0,WeatherDisplay:10.37,2013-08-18 16:48:00,
2013-08-18 12:53:00,79.5,64.4,30.21,ENE,68,3.5,3.5,60,0.00,CLR,,0.00,1300.0,WeatherDisplay:10.37,2013-08-18 16:53:00,
2013-08-18 12:58:00,80.2,64.1,30.21,ESE,112,5.9,5.9,58,0.00,CLR,,0.00,1500.0,WeatherDisplay:10.37,2013-08-18 16:58:00,
2013-08-18 13:03:00,77.5,63.0,30.21,SSE,158,5.8,5.8,61,0.00,CLR,,0.00,900.0,WeatherDisplay:10.37,2013-08-18 17:03:00,
2013-08-18 13:08:00,76.6,63.5,30.21,ESE,112,4.6,4.6,64,0.00,CLR,,0.00,600.0,WeatherDisplay:10.37,2013-08-18 17:08:00,
2013-08-18 13:13:00,76.8,64.2,30.24,North,0,3.5,3.5,65,0.00,CLR,,0.00,500.0,WeatherDisplay:10.37,2013-08-18 17:13:00,
2013-08-18 13:18:00,77.0,63.9,30.24,ENE,68,4.6,4.6,64,0.00,BKN,,0.00,100.0,WeatherDisplay:10.37,2013-08-18 17:18:00,
2013-08-18 13:23:00,76.1,63.5,30.24,NNW,338,1.2,0.0,65,0.00,CLR,,0.00,0.0,WeatherDisplay:10.37,2013-08-18 17:23:00,
2013-08-18 13:28:00,75.9,63.7,30.21,ENE,68,3.3,3.3,66,0.00,CLR,,0.00,400.0,WeatherDisplay:10.37,2013-08-18 17:28:00,
2013-08-18 13:33:00,76.6,64.4,30.21,ENE,68,1.2,0.0,66,0.00,CLR,,0.00,500.0,WeatherDisplay:10.37,2013-08-18 17:33:00,
2013-08-18 13:38:00,76.5,64.3,30.21,ESE,112,6.9,6.9,66,0.00,CLR,,0.00,900.0,WeatherDisplay:10.37,2013-08-18 17:38:00,
2013-08-18 13:43:00,75.7,63.6,30.21,SE,135,5.8,5.8,66,0.00,CLR,,0.00,1100.0,WeatherDisplay:10.37,2013-08-18 17:43:00,
2013-08-18 13:48:00,75.0,64.2,30.21,ESE,112,4.6,4.6,69,0.00,CLR,,0.00,900.0,WeatherDisplay:10.37,2013-08-18 17:48:00,
2013-08-18 13:53:00,75.2,63.9,30.21,South,180,5.6,5.6,68,0.00,CLR,,0.00,1100.0,WeatherDisplay:10.37,2013-08-18 17:53:00,
2013-08-18 13:58:00,75.7,64.8,30.21,ESE,112,3.5,3.5,69,0.00,CLR,,0.00,1300.0,WeatherDisplay:10.37,2013-08-18 17:58:00,
2013-08-18 14:03:00,76.6,64.9,30.21,SSE,158,2.9,2.9,67,0.00,CLR,,0.00,1300.0,WeatherDisplay:10.37,2013-08-18 18:03:00,
2013-08-18 14:08:00,77.5,65.3,30.21,ESE,112,8.1,8.1,66,0.00,CLR,,0.00,1400.0,WeatherDisplay:10.37,2013-08-18 18:08:00,
2013-08-18 14:13:00,77.7,64.1,30.21,ESE,112,8.1,8.1,63,0.00,CLR,,0.00,1200.0,WeatherDisplay:10.37,2013-08-18 18:13:00,
2013-08-18 14:18:00,77.7,64.6,30.21,ENE,68,4.9,4.9,64,0.00,CLR,,0.00,700.0,WeatherDisplay:10.37,2013-08-18 18:18:00,
2013-08-18 14:23:00,77.7,64.6,30.21,East,90,5.9,5.9,64,0.00,CLR,,0.00,700.0,WeatherDisplay:10.37,2013-08-18 18:23:00,
2013-08-18 14:28:00,77.5,63.9,30.21,ESE,112,6.0,6.0,63,0.00,CLR,,0.00,1000.0,WeatherDisplay:10.37,2013-08-18 18:28:00,
2013-08-18 14:33:00,75.9,63.3,30.21,SSW,202,5.8,5.8,65,0.00,CLR,,0.00,900.0,WeatherDisplay:10.37,2013-08-18 18:33:00,
2013-08-18 14:38:00,76.3,64.1,30.21,ESE,112,4.3,4.3,66,0.00,CLR,,0.00,1000.0,WeatherDisplay:10.37,2013-08-18 18:38:00,
2013-08-18 14:43:00,76.3,64.1,30.21,SSW,202,4.6,4.6,66,0.00,CLR,,0.00,1100.0,WeatherDisplay:10.37,2013-08-18 18:43:00,
2013-08-18 14:48:00,76.3,64.1,30.21,SE,135,6.9,6.9,66,0.00,CLR,,0.00,1100.0,WeatherDisplay:10.37,2013-08-18 18:48:00,
2013-08-18 14:53:00,77.4,64.7,30.21,ESE,112,4.6,4.6,65,0.00,CLR,,0.00,1300.0,WeatherDisplay:10.37,2013-08-18 18:53:00,
2013-08-18 14:58:00,77.0,64.8,30.21,ESE,112,5.8,5.8,66,0.00,CLR,,0.00,1200.0,WeatherDisplay:10.37,2013-08-18 18:58:00,
2013-08-18 15:03:00,77.5,65.7,30.21,SSE,158,6.9,6.9,67,0.00,CLR,,0.00,1500.0,WeatherDisplay:10.37,2013-08-18 19:03:00,
2013-08-18 15:08:00,78.1,66.2,30.21,ESE,112,8.1,8.1,67,0.00,CLR,,0.00,1500.0,WeatherDisplay:10.37,2013-08-18 19:08:00,
2013-08-18 15:13:00,78.4,65.2,30.21,SSE,158,9.2,9.2,64,0.00,CLR,,0.00,1200.0,WeatherDisplay:10.37,2013-08-18 19:13:00,
2013-08-18 15:18:00,77.0,64.3,30.21,SSE,158,5.8,5.8,65,0.00,CLR,,0.00,1200.0,WeatherDisplay:10.37,2013-08-18 19:18:00,
2013-08-18 15:23:00,77.0,65.2,30.21,SSE,158,8.1,8.1,67,0.00,CLR,,0.00,1200.0,WeatherDisplay:10.37,2013-08-18 19:23:00,
2013-08-18 15:28:00,77.0,64.8,30.21,South,180,5.4,5.4,66,0.00,CLR,,0.00,1400.0,WeatherDisplay:10.37,2013-08-18 19:28:00,
2013-08-18 15:33:00,77.7,66.3,30.21,ESE,112,3.5,3.5,68,0.00,CLR,,0.00,1100.0,WeatherDisplay:10.37,2013-08-18 19:33:00,
2013-08-18 15:38:00,77.0,64.3,30.21,SSE,158,5.8,5.8,65,0.00,CLR,,0.00,1100.0,WeatherDisplay:10.37,2013-08-18 19:38:00,
2013-08-18 15:43:00,77.2,65.4,30.18,ESE,112,5.8,5.8,67,0.00,CLR,,0.00,1600.0,WeatherDisplay:10.37,2013-08-18 19:43:00,
2013-08-18 15:48:00,77.0,64.8,30.18,SSE,158,6.9,6.9,66,0.00,CLR,,0.00,1400.0,WeatherDisplay:10.37,2013-08-18 19:48:00,
2013-08-18 15:53:00,77.2,64.9,30.18,ESE,112,5.8,5.8,66,0.00,CLR,,0.00,1200.0,WeatherDisplay:10.37,2013-08-18 19:53:00,
2013-08-18 15:58:00,77.7,65.9,30.18,SSE,158,2.3,2.4,67,0.00,CLR,,0.00,1500.0,WeatherDisplay:10.37,2013-08-18 19:58:00,
2013-08-18 16:03:00,77.4,65.1,30.18,ENE,68,5.8,5.8,66,0.00,CLR,,0.00,700.0,WeatherDisplay:10.37,2013-08-18 20:03:00,
2013-08-18 16:08:00,76.6,64.4,30.18,ESE,112,6.9,6.9,66,0.00,BKN,,0.00,400.0,WeatherDisplay:10.37,2013-08-18 20:08:00,
2013-08-18 16:13:00,75.4,64.1,30.18,SSE,158,8.1,8.1,68,0.00,BKN,,0.00,400.0,WeatherDisplay:10.37,2013-08-18 20:13:00,
2013-08-18 16:18:00,74.8,64.4,30.18,ENE,68,6.9,6.9,70,0.00,BKN,,0.00,600.0,WeatherDisplay:10.37,2013-08-18 20:18:00,
2013-08-18 16:23:00,74.7,65.0,30.18,ENE,68,5.9,5.9,72,0.00,SCT,,0.00,600.0,WeatherDisplay:10.37,2013-08-18 20:23:00,
2013-08-18 16:28:00,75.4,65.3,30.18,NNE,22,7.8,7.8,71,0.00,CLR,,0.00,800.0,WeatherDisplay:10.37,2013-08-18 20:28:00,
2013-08-18 16:33:00,75.2,64.7,30.18,ESE,112,6.9,6.9,70,0.00,CLR,,0.00,1600.0,WeatherDisplay:10.37,2013-08-18 20:33:00,
2013-08-18 16:38:00,76.3,65.8,30.18,SSE,158,7.4,7.4,70,0.00,CLR,,0.00,1200.0,WeatherDisplay:10.37,2013-08-18 20:38:00,
2013-08-18 16:43:00,76.6,64.9,30.21,SE,135,11.5,11.5,67,0.00,CLR,,0.00,1000.0,WeatherDisplay:10.37,2013-08-18 20:43:00,
2013-08-18 16:48:00,76.5,65.1,30.21,SSE,158,4.6,4.6,68,0.00,CLR,,0.00,900.0,WeatherDisplay:10.37,2013-08-18 20:48:00,
2013-08-18 16:53:00,75.7,64.8,30.21,SSW,202,3.5,3.5,69,0.00,SCT,,0.00,500.0,WeatherDisplay:10.37,2013-08-18 20:53:00,
2013-08-18 16:58:00,75.0,64.6,30.18,SE,135,6.9,6.9,70,0.00,SCT,,0.00,600.0,WeatherDisplay:10.37,2013-08-18 20:58:00,
2013-08-18 17:03:00,74.5,64.9,30.18,ESE,112,6.4,6.4,72,0.00,SCT,,0.00,600.0,WeatherDisplay:10.37,2013-08-18 21:03:00,
2013-08-18 17:08:00,74.1,64.9,30.18,SSE,158,6.9,6.9,73,0.00,SCT,,0.00,500.0,WeatherDisplay:10.37,2013-08-18 21:08:00,
2013-08-18 17:13:00,73.6,64.8,30.18,SSE,158,5.8,5.8,74,0.00,BKN,,0.00,400.0,WeatherDisplay:10.37,2013-08-18 21:13:00,
2013-08-18 17:18:00,73.2,64.8,30.18,SSE,158,8.1,8.1,75,0.00,BKN,,0.00,400.0,WeatherDisplay:10.37,2013-08-18 21:18:00,
2013-08-18 17:23:00,72.9,64.8,30.18,ENE,68,8.1,8.1,76,0.00,BKN,,0.00,300.0,WeatherDisplay:10.37,2013-08-18 21:23:00,
2013-08-18 17:28:00,73.2,65.6,30.18,SSE,158,5.8,5.8,77,0.00,BKN,,0.00,200.0,WeatherDisplay:10.37,2013-08-18 21:28:00,
2013-08-18 17:33:00,72.7,65.1,30.18,SSW,202,5.8,5.8,77,0.00,BKN,,0.00,200.0,WeatherDisplay:10.37,2013-08-18 21:33:00,
2013-08-18 17:38:00,73.0,65.4,30.18,ESE,112,6.9,6.9,77,0.00,BKN,,0.00,500.0,WeatherDisplay:10.37,2013-08-18 21:38:00,
2013-08-18 17:43:00,73.2,65.2,30.18,ESE,112,5.8,5.8,76,0.00,BKN,,0.00,400.0,WeatherDisplay:10.37,2013-08-18 21:43:00,
2013-08-18 17:48:00,73.2,65.2,30.18,ESE,112,6.9,6.9,76,0.00,BKN,,0.00,400.0,WeatherDisplay:10.37,2013-08-18 21:48:00,
2013-08-18 17:53:00,73.0,65.0,30.18,ESE,112,6.9,6.9,76,0.00,BKN,,0.00,200.0,WeatherDisplay:10.37,2013-08-18 21:53:00,
2013-08-18 17:58:00,73.0,65.0,30.18,ENE,68,5.8,5.8,76,0.00,CLR,,0.00,0.0,WeatherDisplay:10.37,2013-08-18 21:58:00,
2013-08-18 18:03:00,72.5,64.9,30.18,ESE,112,6.9,6.9,77,0.00,CLR,,0.00,0.0,WeatherDisplay:10.37,2013-08-18 22:03:00,
2013-08-18 18:08:00,72.3,64.7,30.18,ESE,112,5.8,5.8,77,0.00,BKN,,0.00,100.0,WeatherDisplay:10.37,2013-08-18 22:08:00,
2013-08-18 18:13:00,72.5,65.2,30.18,SSE,158,4.6,4.6,78,0.00,CLR,,0.00,0.0,WeatherDisplay:10.37,2013-08-18 22:13:00,
2013-08-18 18:18:00,72.0,64.7,30.18,ENE,68,5.8,5.8,78,0.00,CLR,,0.00,0.0,WeatherDisplay:10.37,2013-08-18 22:18:00,
2013-08-18 18:23:00,71.6,64.7,30.18,ESE,112,8.1,8.1,79,0.00,CLR,,0.00,0.0,WeatherDisplay:10.37,2013-08-18 22:23:00,
2013-08-18 18:28:00,71.8,65.3,30.18,SSE,158,3.5,3.5,80,0.00,CLR,,0.00,0.0,WeatherDisplay:10.37,2013-08-18 22:28:00,
2013-08-18 18:33:00,72.1,65.6,30.18,ESE,112,2.3,2.3,80,0.00,CLR,,0.00,0.0,WeatherDisplay:10.37,2013-08-18 22:33:00,
2013-08-18 18:38:00,72.0,65.5,30.18,East,90,4.6,4.6,80,0.00,CLR,,0.00,0.0,WeatherDisplay:10.37,2013-08-18 22:38:00,
2013-08-18 18:43:00,72.0,65.5,30.18,ESE,112,3.5,3.5,80,0.00,CLR,,0.00,0.0,WeatherDisplay:10.37,2013-08-18 22:43:00,
2013-08-18 18:48:00,71.8,65.3,30.18,SSE,158,9.2,9.2,80,0.00,CLR,,0.00,0.0,WeatherDisplay:10.37,2013-08-18 22:48:00,
2013-08-18 18:53:00,71.8,65.3,30.18,SSE,158,5.8,5.8,80,0.00,CLR,,0.00,0.0,WeatherDisplay:10.37,2013-08-18 22:53:00,
2013-08-18 18:58:00,71.4,65.3,30.18,SSE,158,5.8,5.8,81,0.00,CLR,,0.00,0.0,WeatherDisplay:10.37,2013-08-18 22:58:00,
2013-08-18 19:03:00,71.4,65.3,30.18,SSE,158,4.6,4.6,81,0.00,CLR,,0.00,0.0,WeatherDisplay:10.37,2013-08-18 23:03:00,
2013-08-18 19:08:00,71.8,65.3,30.18,ENE,68,5.8,5.8,80,0.00,CLR,,0.00,0.0,WeatherDisplay:10.37,2013-08-18 23:08:00,
2013-08-18 19:13:00,71.4,65.3,30.18,ESE,112,6.0,6.0,81,0.00,CLR,,0.00,0.0,WeatherDisplay:10.37,2013-08-18 23:13:00,
2013-08-18 19:18:00,71.6,65.5,30.18,East,90,5.8,5.8,81,0.00,CLR,,0.00,0.0,WeatherDisplay:10.37,2013-08-18 23:18:00,
2013-08-18 19:23:00,71.2,65.1,30.18,SSE,158,4.6,4.6,81,0.00,CLR,,0.00,0.0,WeatherDisplay:10.37,2013-08-18 23:23:00,
2013-08-18 19:28:00,70.5,65.1,30.18,SSE,158,5.8,5.8,83,0.00,CLR,,0.00,0.0,WeatherDisplay:10.37,2013-08-18 23:28:00,
2013-08-18 19:33:00,70.0,64.9,30.18,SSE,158,4.6,4.6,84,0.00,CLR,,0.00,0.0,WeatherDisplay:10.37,2013-08-18 23:33:00,
2013-08-18 19:38:00,69.6,64.9,30.18,ESE,112,3.5,3.5,85,0.00,CLR,,0.00,0.0,WeatherDisplay:10.37,2013-08-18 23:38:00,
2013-08-18 19:43:00,69.3,64.9,30.18,SSE,158,3.5,3.5,86,0.00,CLR,,0.00,0.0,WeatherDisplay:10.37,2013-08-18 23:43:00,
2013-08-18 19:48:00,69.1,64.7,30.18,ESE,112,4.9,4.9,86,0.00,CLR,,0.00,0.0,WeatherDisplay:10.37,2013-08-18 23:48:00,
2013-08-18 19:53:00,68.7,64.7,30.18,SSE,158,5.8,5.8,87,0.00,CLR,,0.00,0.0,WeatherDisplay:10.37,2013-08-18 23:53:00,
2013-08-18 19:58:00,68.4,64.7,30.18,SSE,158,2.4,2.4,88,0.00,CLR,,0.00,0.0,WeatherDisplay:10.37,2013-08-18 23:58:00,
2013-08-18 20:03:00,68.2,64.2,30.18,SSW,202,1.4,0.0,87,0.00,CLR,,0.00,0.0,WeatherDisplay:10.37,2013-08-19 00:03:00,
2013-08-18 20:08:00,67.8,64.5,30.18,SSE,158,2.3,2.3,89,0.00,CLR,,0.00,0.0,WeatherDisplay:10.37,2013-08-19 00:08:00,
2013-08-18 20:13:00,67.6,64.3,30.18,ESE,112,2.3,2.3,89,0.00,CLR,,0.00,0.0,WeatherDisplay:10.37,2013-08-19 00:13:00,
2013-08-18 20:18:00,67.5,64.1,30.18,South,180,0.0,0.0,89,0.00,CLR,,0.00,0.0,WeatherDisplay:10.37,2013-08-19 00:18:00,
2013-08-18 20:23:00,67.3,63.9,30.18,SE,135,1.6,0.0,89,0.00,CLR,,0.00,0.0,WeatherDisplay:10.37,2013-08-19 00:23:00,
2013-08-18 20:28:00,66.9,63.9,30.18,ENE,68,0.0,0.0,90,0.00,CLR,,0.00,0.0,WeatherDisplay:10.37,2013-08-19 00:28:00,
2013-08-18 20:33:00,66.7,63.7,30.18,SSW,202,0.0,0.0,90,0.00,CLR,,0.00,0.0,WeatherDisplay:10.37,2013-08-19 00:33:00,
2013-08-18 20:38:00,66.6,63.5,30.18,SSE,158,1.2,1.2,90,0.00,CLR,,0.00,0.0,WeatherDisplay:10.37,2013-08-19 00:38:00,
2013-08-18 20:43:00,66.4,63.7,30.18,ESE,112,1.2,1.2,91,0.00,CLR,,0.00,0.0,WeatherDisplay:10.37,2013-08-19 00:43:00,
2013-08-18 20:48:00,66.0,63.3,30.18,SSE,158,1.2,1.2,91,0.00,CLR,,0.00,0.0,WeatherDisplay:10.37,2013-08-19 00:48:00,
2013-08-18 20:53:00,66.0,63.6,30.18,SSE,158,2.3,2.3,92,0.00,CLR,,0.00,0.0,WeatherDisplay:10.37,2013-08-19 00:53:00,
2013-08-18 20:58:00,65.8,63.5,30.18,ENE,68,1.2,0.0,92,0.00,CLR,,0.00,0.0,WeatherDisplay:10.37,2013-08-19 00:58:00,
2013-08-18 21:03:00,65.7,63.3,30.18,SSE,158,0.0,0.0,92,0.00,CLR,,0.00,0.0,WeatherDisplay:10.37,2013-08-19 01:03:00,
2013-08-18 21:08:00,65.5,63.1,30.18,SSE,158,0.0,0.0,92,0.00,CLR,,0.00,0.0,WeatherDisplay:10.37,2013-08-19 01:08:00,
2013-08-18 21:13:00,65.3,63.2,30.18,ESE,112,0.0,0.0,93,0.00,CLR,,0.00,0.0,WeatherDisplay:10.37,2013-08-19 01:13:00,
2013-08-18 21:18:00,65.1,63.0,30.18,East,90,1.2,1.2,93,0.00,CLR,,0.00,0.0,WeatherDisplay:10.37,2013-08-19 01:18:00,
2013-08-18 21:23:00,64.9,63.2,30.18,ENE,68,2.3,2.3,94,0.00,CLR,,0.00,0.0,WeatherDisplay:10.37,2013-08-19 01:23:00,
2013-08-18 21:28:00,64.4,62.3,30.18,ENE,68,0.0,0.0,93,0.00,CLR,,0.00,0.0,WeatherDisplay:10.37,2013-08-19 01:28:00,
2013-08-18 21:33:00,64.2,62.5,30.18,ENE,68,1.4,0.0,94,0.00,CLR,,0.00,0.0,WeatherDisplay:10.37,2013-08-19 01:33:00,
2013-08-18 21:38:00,64.0,62.3,30.18,ENE,68,1.2,1.2,94,0.00,CLR,,0.00,0.0,WeatherDisplay:10.37,2013-08-19 01:38:00,
2013-08-18 21:43:00,63.9,62.1,30.18,ENE,68,0.0,0.0,94,0.00,CLR,,0.00,0.0,WeatherDisplay:10.37,2013-08-19 01:43:00,
2013-08-18 21:48:00,63.9,62.4,30.18,East,90,0.0,0.0,95,0.00,CLR,,0.00,0.0,WeatherDisplay:10.37,2013-08-19 01:48:00,
2013-08-18 21:53:00,63.7,62.2,30.18,ENE,68,1.2,0.0,95,0.00,CLR,,0.00,0.0,WeatherDisplay:10.37,2013-08-19 01:53:00,
2013-08-18 21:58:00,63.5,62.0,30.21,ENE,68,0.0,0.0,95,0.00,CLR,,0.00,0.0,WeatherDisplay:10.37,2013-08-19 01:58:00,
2013-08-18 22:03:00,63.3,61.9,30.21,ENE,68,0.0,0.0,95,0.00,CLR,,0.00,0.0,WeatherDisplay:10.37,2013-08-19 02:03:00,
2013-08-18 22:08:00,63.0,61.5,30.21,ENE,68,0.0,0.0,95,0.00,CLR,,0.00,0.0,WeatherDisplay:10.37,2013-08-19 02:08:00,
2013-08-18 22:13:00,63.0,61.5,30.21,ENE,68,0.0,0.0,95,0.00,CLR,,0.00,0.0,WeatherDisplay:10.37,2013-08-19 02:13:00,
2013-08-18 22:18:00,63.0,61.5,30.21,ENE,68,0.0,0.0,95,0.00,CLR,,0.00,0.0,WeatherDisplay:10.37,2013-08-19 02:18:00,
2013-08-18 22:23:00,62.8,61.3,30.21,East,90,0.0,0.0,95,0.00,CLR,,0.00,0.0,WeatherDisplay:10.37,2013-08-19 02:23:00,
2013-08-18 22:28:00,62.4,61.0,30.21,East,90,0.0,0.0,95,0.00,CLR,,0.00,0.0,WeatherDisplay:10.37,2013-08-19 02:28:00,
2013-08-18 22:33:00,62.2,60.8,30.21,East,90,0.0,0.0,95,0.00,CLR,,0.00,0.0,WeatherDisplay:10.37,2013-08-19 02:33:00,
2013-08-18 22:38:00,62.2,60.8,30.21,East,90,0.0,0.0,95,0.00,CLR,,0.00,0.0,WeatherDisplay:10.37,2013-08-19 02:38:00,
2013-08-18 22:43:00,62.1,60.6,30.18,East,90,0.0,0.0,95,0.00,CLR,,0.00,0.0,WeatherDisplay:10.37,2013-08-19 02:43:00,
2013-08-18 22:48:00,61.9,60.7,30.18,East,90,0.0,0.0,96,0.00,CLR,,0.00,0.0,WeatherDisplay:10.37,2013-08-19 02:48:00,
2013-08-18 22:53:00,61.7,60.5,30.18,East,90,0.0,0.0,96,0.00,CLR,,0.00,0.0,WeatherDisplay:10.37,2013-08-19 02:53:00,
2013-08-18 22:58:00,61.7,60.5,30.21,East,90,0.0,0.0,96,0.00,CLR,,0.00,0.0,WeatherDisplay:10.37,2013-08-19 02:58:00,
2013-08-18 23:03:00,61.5,60.4,30.21,East,90,0.0,0.0,96,0.00,CLR,,0.00,0.0,WeatherDisplay:10.37,2013-08-19 03:03:00,
2013-08-18 23:08:00,61.5,60.4,30.21,East,90,0.0,0.0,96,0.00,CLR,,0.00,0.0,WeatherDisplay:10.37,2013-08-19 03:08:00,
2013-08-18 23:13:00,61.5,60.4,30.21,ESE,112,0.0,0.0,96,0.00,CLR,,0.00,0.0,WeatherDisplay:10.37,2013-08-19 03:13:00,
2013-08-18 23:18:00,61.5,60.4,30.18,ESE,112,0.0,0.0,96,0.00,CLR,,0.00,0.0,WeatherDisplay:10.37,2013-08-19 03:18:00,
2013-08-18 23:23:00,61.3,60.2,30.18,ESE,112,0.0,0.0,96,0.00,CLR,,0.00,0.0,WeatherDisplay:10.37,2013-08-19 03:23:00,
2013-08-18 23:28:00,61.3,60.2,30.21,ESE,112,0.0,0.0,96,0.00,CLR,,0.00,0.0,WeatherDisplay:10.37,2013-08-19 03:28:00,
2013-08-18 23:33:00,61.2,60.0,30.21,ESE,112,0.0,0.0,96,0.00,CLR,,0.00,0.0,WeatherDisplay:10.37,2013-08-19 03:33:00,
2013-08-18 23:38:00,61.0,59.8,30.21,ENE,68,0.0,0.0,96,0.00,CLR,,0.00,0.0,WeatherDisplay:10.37,2013-08-19 03:38:00,
2013-08-18 23:43:00,61.0,59.8,30.21,ENE,68,0.0,0.0,96,0.00,CLR,,0.00,0.0,WeatherDisplay:10.37,2013-08-19 03:43:00,
2013-08-18 23:48:00,61.0,59.8,30.21,ENE,68,0.0,0.0,96,0.00,CLR,,0.00,0.0,WeatherDisplay:10.37,2013-08-19 03:48:00,
2013-08-18 23:53:00,60.8,59.7,30.21,ENE,68,0.0,0.0,96,0.00,CLR,,0.00,0.0,WeatherDisplay:10.37,2013-08-19 03:53:00,
2013-08-18 23:58:00,60.4,59.3,30.18,ENE,68,0.0,0.0,96,0.00,CLR,,0.00,0.0,WeatherDisplay:10.37,2013-08-19 03:58:00,